Regional Weather Roundup
Issued by NWS Boston, MA

Home | Current Version | Previous Version | Text Only | Print | Product List | Glossary On
Versions: 1 2 3 4 5 6 7 8 9 10 11 12 13 14 15 16 17 18 19 20 21 22 23 24 25 26 27 28
000
ASUS41 KBOX 262110
RWRBOX

REGIONAL WEATHER ROUNDUP
NATIONAL WEATHER SERVICE TAUNTON MA
500 PM EDT MON SEP 26 2016

NOTE:  "FAIR" INDICATES FEW OR NO CLOUDS BELOW 12,000 FEET WITH NO
SIGNIFICANT WEATHER AND/OR OBSTRUCTIONS TO VISIBILITY.

MAZALL-262200-
EASTERN MASSACHUSETTS

CITY           SKY/WX    TMP DP  RH WIND       PRES   REMARKS
BOSTON         PTSUNNY   62  47  57 SE15      30.09F
BEVERLY        SUNNY     61  44  53 SE9       30.10F
LAWRENCE       SUNNY     68  39  34 SW10      30.09F
BEDFORD        SUNNY     65  36  34 S8        30.07F
BLUE HILL      NOT AVBL
NORWOOD        SUNNY     68  38  33 SW7G20    30.09F
MARSHFIELD     SUNNY     63  45  51 SE10      30.10F
PLYMOUTH       SUNNY     63  43  48 VRB7      30.12S
TAUNTON        SUNNY     65  43  44 VRB6      30.11S
NEW BEDFORD    SUNNY     63  46  54 SW13      30.12S
$$

MAZALL-262200-
CAPE COD AND THE ISLANDS

CITY           SKY/WX    TMP DP  RH WIND       PRES   REMARKS
FALMOUTH       SUNNY     63  41  45 SW8G16    30.13
HYANNIS        SUNNY     63  44  50 S8        30.11F
CHATHAM        SUNNY     61  43  51 SW7       30.14F
PROVINCETOWN   SUNNY     61  42  49 S9        30.13F
NANTUCKET      SUNNY     61  40  45 S9        30.14F
MARTHAS VNYRD  SUNNY     62  42  47 SW12      30.14S
$$

MAZALL-262200-
CENTRAL AND WESTERN MASSACHUSETTS

CITY           SKY/WX    TMP DP  RH WIND       PRES   REMARKS
WORCESTER      CLOUDY    62  41  46 SW10      30.09F
FITCHBURG      SUNNY     67  40  37 W8        30.09F
ORANGE         CLOUDY    64  42  44 S10       30.08F
SPRINGFIELD    MOSUNNY   68  44  43 S13       30.05F
WESTFIELD      MOSUNNY   67  46  47 S14       30.06F
NORTH ADAMS    MOSUNNY   65  45  48 CALM      30.04F
PITTSFIELD     MOSUNNY   64  45  49 S5        30.04F
$$

RIZALL-262200-
RHODE ISLAND

CITY           SKY/WX    TMP DP  RH WIND       PRES   REMARKS
PROVIDENCE     CLOUDY    65  45  48 S14       30.11F
NEWPORT        CLOUDY    63  48  58 SW8       30.12F
BLOCK ISLAND   SUNNY     64  46  52 SW9       30.14F
SMITHFIELD     SUNNY     62  46  55 CALM      30.10F
WESTERLY       SUNNY     66  44  45 S10       30.13F
$$

CTZALL-262200-
CONNECTICUT

CITY           SKY/WX    TMP DP  RH WIND       PRES   REMARKS
BRADLEY INTL   PTSUNNY   67  46  47 S12G20    30.07F
HARTFORD       SUNNY     66  49  54 S10       30.08F
BRIDGEPORT     SUNNY     70  50  49 S12       30.08F
DANBURY        PTSUNNY   66  48  52 S10       30.07F
GROTON         SUNNY     66  49  54 S12       30.11F
NEW HAVEN      PTSUNNY   68  50  52 S12       30.09F
CHESTER        FAIR      66  48  52 S8        30.11F
MERIDEN        MOSUNNY   70  46  42 S10       30.08F
WILLIMANTIC    SUNNY     66  48  52 S10       30.11F
OXFORD         PTSUNNY   66  46  48 S10G17    30.09F
$$

MEZ002-015-021-024-NHZ003-005-008-011-012-014-VTZ005-008-262200-
NORTHERN NEW ENGLAND

CITY           SKY/WX    TMP DP  RH WIND       PRES   REMARKS
PORTLAND ME    CLOUDY    58  40  51 S10       30.08F
BANGOR ME      MOSUNNY   62  37  39 VRB7      30.05S
CONCORD NH     SUNNY     65  36  34 S7        30.06F
MANCHESTER NH  PTSUNNY   66  34  30 S9        30.05F
NASHUA NH      SUNNY     65  40  39 SW5       30.07F
PORTSMOUTH NH  PTSUNNY   61  43  50 SE13      30.07F
JAFFREY NH     MOSUNNY   62  39  42 S7        30.09F
KEENE NH       MOSUNNY   63  43  48 S9        30.06F
BURLINGTON VT  CLOUDY    64  38  38 S10G18    29.99F
MT. WASHINGTON MOSUNNY   39  18  41 W24         N/A  WCI  28
$$

NYZ052-076-262200-
EASTERN NEW YORK

CITY           SKY/WX    TMP DP  RH WIND       PRES   REMARKS
ALBANY         PTSUNNY   68  46  45 S14G22    30.01F
NEW YORK CITY  PTSUNNY   71  50  47 S13       30.06F
$$

ANZALL-262200-
MARINE OBSERVATIONS

STATION/POSITION TIME  TEMP    WIND        PRES    VSBY  WAVE
                       AIR SEA DIR/SP/G                  HT/PER
                 (UTC) (F)     (DEG/KT/KT) (MB)    (MI)  (FT/S)
BOSTON BUOY      2050   59 64  130/ 14/ 16 1019.1F         1/ 4
BUZZARDS BAY     2000   60     210/ 12/ 14 1021.2F
NANTUCKET SOUND  2050   62 68  220/ 10/ 14 1020.3F         1
MASS BAY-STELLWA 2004   59 62  140/ 10/ 12 1019.5F  1 7/8  1/ 4
ISLE OF SHOALS   2100   58     160/ 17/ 18 1018.7F
S OF BLOCK IS    2025      67                N/A           1/11
$$

......................KEY.........................
  SKY/WX - SKY CONDITION/PRESENT WEATHER
  TMP    - TEMPERATURE IN FAHRENHEIT
  DWPT   - DEWPOINT IN FAHRENHEIT
  RH     - RELATIVE HUMIDITY IN PERCENT
  WIND   - DIRECTION AND SPEED IN MPH
  PRES   - MEAN SEA LEVEL PRESSURE IN INCHES OF HG
  WCI    - WIND CHILL INDEX
  VSB    - VISIBILITY IN MILES
  HX     - HEAT INDEX
  TC     - TEMPERATURE IN CELSIUS
  VRB    - VARIABLE WIND DIRECTION
  N/A    - NOT AVAILABLE




USA.gov is the U.S. government's official web portal to all federal, state and local government web resources and services.